Theta_e
310 310 310 310 310 310 310 310 310 310 310 310 311 311 311 311 311 311 311 311 312 312 312 312 312 312 312 312 313 313 313 314 315 314 315 316 316 315 314 314 314 314 313 313 314 315 315 316 317 317 317 318 318 321 322 321 321 321 323 324 323 323 323 321 321 321 319 318 317 317 317 317 317 318 318 318 318 318 317 317 317 317 318 318 318 318 318 318
310 310 310 310 310 310 310 310 310 310 311 311 311 311 311 311 311 311 311 311 311 311 312 312 312 312 312 312 313 313 314 315 314 315 317 316 315 314 314 314 314 314 314 314 314 315 317 317 317 317 318 319 320 321 322 322 321 321 324 323 322 323 322 321 320 320 320 319 318 317 317 317 317 317 317 317 317 317 317 317 317 317 317 318 318 318 319 319
309 310 310 310 310 310 310 310 310 310 311 311 311 311 311 311 311 311 311 311 311 311 312 312 312 312 313 313 313 314 314 315 315 318 317 314 314 315 315 315 314 314 314 314 315 315 317 317 317 318 317 319 320 321 322 322 322 321 322 322 322 322 321 320 319 319 319 319 318 318 317 317 317 317 317 317 317 317 317 317 316 317 317 318 317 317 318 319
309 309 309 309 309 310 310 310 310 310 310 310 310 311 311 311 311 311 312 312 312 312 312 313 313 313 314 314 314 314 314 315 317 318 316 314 315 315 315 315 315 314 314 314 314 315 317 316 317 317 317 318 319 321 322 322 322 321 321 321 321 320 319 319 318 318 319 319 318 318 317 317 316 317 317 317 318 317 317 317 317 317 317 317 317 316 317 318
309 309 309 309 309 310 310 310 310 310 311 311 311 311 311 312 312 312 313 313 313 313 313 314 314 314 314 313 314 313 314 316 318 316 314 314 315 315 315 315 315 314 314 314 314 315 315 315 316 317 317 317 318 319 320 321 321 320 320 320 320 320 319 318 318 318 319 319 318 318 317 317 317 317 317 317 318 317 317 317 317 317 317 317 317 317 317 317
310 310 310 310 310 311 311 311 311 312 312 312 312 312 312 313 313 313 313 313 314 314 314 314 314 315 315 315 315 315 314 316 318 316 315 315 315 315 315 314 314 314 314 314 314 314 315 315 316 316 317 317 317 317 318 319 320 321 320 319 319 318 317 317 317 318 319 318 318 318 317 317 316 316 317 317 317 317 317 317 317 317 318 318 318 317 317 317
311 311 311 311 312 312 312 312 312 312 312 313 313 313 314 314 314 315 315 316 316 316 317 317 318 318 318 318 318 318 317 316 317 317 316 316 315 315 314 314 314 314 315 314 314 315 315 316 316 316 317 317 317 317 317 317 318 320 320 319 319 317 317 316 317 318 318 318 317 317 317 317 316 316 316 316 317 317 316 316 316 317 317 317 318 318 317 317
312 312 312 312 312 312 312 313 313 314 314 315 316 317 317 318 318 319 319 319 319 319 318 318 318 318 318 317 317 318 319 318 318 318 317 316 315 314 314 314 314 314 315 314 315 316 316 316 316 316 316 316 317 317 317 317 317 319 319 319 319 318 317 317 317 318 318 318 317 317 317 317 317 316 316 316 316 316 316 316 316 316 317 317 317 317 317 317
315 315 315 315 315 314 315 315 316 317 318 318 319 319 319 319 318 318 317 317 316 316 315 315 315 315 315 314 314 317 320 320 320 319 317 315 315 315 315 314 314 314 315 315 315 316 316 316 317 316 317 317 317 317 317 317 317 317 317 317 317 317 317 317 317 317 316 316 316 317 317 317 317 316 316 316 316 316 316 317 317 317 317 317 317 316 316 316
317 317 317 317 316 316 316 317 317 317 317 318 317 317 316 316 315 314 314 314 314 314 314 315 315 315 315 315 315 317 320 321 321 319 317 316 315 315 315 315 315 314 314 315 316 316 316 316 316 317 317 317 316 316 316 316 316 317 317 316 315 315 315 315 315 315 315 315 315 316 317 317 316 316 316 316 316 316 316 317 316 317 316 316 316 316 316 316
316 317 317 316 316 316 316 316 316 316 316 315 315 315 314 314 314 314 315 315 315 315 316 317 317 318 317 316 316 317 319 319 319 318 318 317 316 315 315 315 315 315 315 315 316 316 316 316 316 317 316 316 315 315 316 316 316 316 315 315 315 315 315 315 315 315 315 315 316 316 316 316 316 316 316 316 316 316 316 317 316 317 317 316 316 316 316 316
316 316 316 316 315 315 315 315 315 315 314 314 314 314 314 315 315 316 317 317 317 317 318 319 319 320 319 317 316 318 318 318 318 318 317 317 316 315 315 315 314 314 315 316 317 317 316 316 317 316 316 315 315 315 315 315 315 315 314 314 314 314 315 315 315 316 316 316 316 316 316 316 315 315 316 316 317 317 316 317 317 316 316 316 316 316 317 317
315 315 315 315 315 315 315 314 314 314 314 315 315 316 316 317 318 318 318 319 319 319 320 320 321 321 319 317 318 319 318 318 317 317 317 317 316 316 315 315 315 314 315 316 317 317 317 316 316 316 315 315 315 315 315 315 315 314 314 314 314 315 315 316 316 317 316 316 316 315 315 316 316 316 317 317 317 317 317 316 317 316 316 316 316 316 316 316
315 315 315 314 315 314 314 314 314 315 316 317 317 318 319 319 320 320 320 320 321 321 321 321 321 321 318 318 320 319 318 318 317 317 317 317 316 315 315 315 314 314 314 315 316 316 316 316 315 314 315 315 315 315 314 315 315 314 315 315 316 316 316 317 317 317 316 315 315 315 315 316 316 317 318 318 318 317 317 317 317 317 317 317 316 317 316 316
314 314 314 314 314 314 314 315 317 318 319 320 321 321 322 322 322 322 321 322 321 321 321 321 320 319 318 318 319 318 318 317 317 317 317 317 316 315 315 314 314 314 314 314 314 314 315 315 315 314 315 315 315 315 314 314 315 314 315 316 318 318 317 318 318 316 316 315 313 315 316 315 316 317 318 319 318 317 316 316 317 316 316 317 316 316 317 316
314 314 314 314 314 315 317 318 320 322 323 323 323 323 322 322 321 321 321 321 321 321 320 320 319 318 317 319 319 318 318 317 317 317 317 316 315 315 315 315 314 313 313 313 313 313 314 314 314 314 315 315 314 315 315 315 316 316 316 317 319 319 317 319 320 317 316 315 314 315 316 316 316 317 318 318 317 317 316 316 316 316 316 316 316 316 317 316
314 313 314 315 316 318 320 322 323 324 324 324 323 322 321 321 321 321 321 320 320 320 319 319 318 316 316 318 318 318 318 317 317 316 315 315 315 314 314 314 314 314 313 313 312 312 313 313 314 314 314 314 314 315 317 318 318 319 319 318 319 320 318 319 320 319 317 316 315 315 314 315 316 316 316 316 317 316 316 316 316 316 316 316 316 316 316 316
314 314 315 317 319 321 323 323 324 324 324 322 321 321 320 320 321 320 321 320 320 319 318 317 316 317 319 318 318 318 317 316 316 315 315 315 315 315 315 314 314 314 313 313 313 313 313 313 314 315 315 314 313 315 317 319 319 319 320 319 319 319 319 319 319 320 319 318 318 317 315 316 316 316 316 316 317 317 316 316 316 316 317 317 316 317 317 315
315 316 318 320 322 323 323 324 324 325 324 322 320 320 321 321 322 322 321 320 319 321 321 317 316 320 321 319 319 319 318 317 316 316 317 317 316 316 316 315 315 314 314 315 314 313 313 314 316 317 317 316 315 315 316 317 318 318 319 319 319 318 318 319 319 319 319 319 318 319 318 318 318 317 316 317 317 316 316 316 317 317 317 317 317 316 315 314
317 319 320 322 322 323 323 324 324 325 323 321 320 320 322 322 323 322 320 319 319 321 321 319 318 320 321 321 321 320 320 319 318 318 318 317 317 316 315 314 314 314 315 317 317 313 314 316 318 318 317 316 317 317 317 317 318 318 319 319 319 319 319 318 319 319 319 319 319 319 319 318 318 317 316 316 316 316 316 316 316 317 317 317 317 316 314 313
318 320 321 322 322 322 323 323 324 324 322 320 320 321 321 321 321 320 319 319 320 320 321 321 320 320 321 321 321 321 320 319 318 318 317 316 316 315 315 315 315 315 316 317 317 314 315 318 319 318 317 317 318 318 319 319 319 319 319 319 319 319 319 318 318 319 318 318 318 318 318 317 317 317 316 316 316 316 316 316 316 316 317 316 315 314 313 312
319 321 321 322 322 321 321 322 322 322 320 319 320 320 321 319 319 318 317 317 319 321 321 321 321 321 321 321 321 321 320 318 317 317 317 316 315 315 315 315 316 317 317 317 317 317 318 318 318 317 317 318 318 318 319 319 320 320 319 320 320 319 319 318 319 318 317 317 318 318 317 317 317 316 316 316 315 316 317 316 317 317 316 315 314 312 311 311
320 321 321 322 321 319 319 320 320 320 319 319 320 321 320 320 318 317 316 315 317 320 321 321 321 321 321 321 320 319 318 318 318 318 317 316 315 315 316 315 316 318 319 318 319 320 320 319 318 317 318 318 318 319 319 319 320 321 320 320 320 319 320 320 320 318 317 317 317 317 317 317 316 316 316 316 316 317 318 317 316 315 313 313 312 311 310 309
320 321 321 322 321 318 318 319 319 320 320 320 320 321 321 320 318 316 315 315 317 319 320 320 320 320 320 319 318 317 317 317 318 318 318 317 315 316 316 316 316 318 318 317 318 320 320 319 318 318 319 319 319 320 321 320 320 321 322 321 320 320 320 320 319 318 317 317 318 318 319 319 318 318 319 318 318 317 317 316 314 313 312 311 310 309 309 308
321 321 322 322 320 318 318 319 320 320 320 320 321 321 321 320 319 316 315 317 319 319 319 320 319 318 318 317 316 316 315 316 317 316 316 316 316 316 316 317 317 318 319 319 318 319 319 319 319 320 319 320 321 320 321 321 320 320 322 322 321 320 321 321 321 320 319 319 320 320 321 322 321 320 321 320 320 318 316 314 312 312 311 310 310 309 307 306
321 321 322 322 322 320 319 320 322 321 321 322 321 321 321 320 318 315 315 318 321 321 320 319 318 316 315 314 313 314 315 316 315 315 315 316 316 315 315 317 317 317 318 318 319 319 318 317 319 320 321 321 322 320 320 321 320 320 322 323 322 321 321 321 321 321 320 320 319 318 320 321 320 320 320 320 321 317 313 312 312 311 310 309 309 308 307 306
321 322 322 323 323 321 320 322 322 321 322 323 322 321 321 320 318 315 317 321 324 322 318 316 316 315 312 312 312 314 317 316 314 314 314 315 315 314 315 316 317 317 315 316 320 320 318 319 320 320 320 322 322 320 320 321 320 321 322 322 321 320 320 320 319 320 320 318 318 317 319 320 319 320 319 320 320 315 311 311 311 310 309 308 307 306 306 305
321 322 323 323 323 321 320 321 321 320 321 322 321 321 321 320 318 315 319 326 327 320 316 314 314 313 311 312 312 313 314 314 314 314 313 314 314 313 314 315 316 316 314 317 321 320 318 320 321 320 320 321 321 320 321 321 321 322 320 318 318 317 317 317 318 319 318 318 319 320 320 321 322 321 320 320 318 313 311 311 310 310 309 307 306 305 304 304
322 322 322 322 321 320 320 321 320 320 321 321 321 321 320 318 318 316 320 325 324 317 316 313 313 313 311 311 312 312 311 311 313 313 312 313 313 312 313 313 313 315 315 316 319 319 318 318 319 320 320 320 319 320 323 323 321 318 317 317 317 317 318 318 318 318 318 318 319 321 321 322 325 324 321 322 318 313 312 311 309 308 307 306 305 304 304 303
322 322 321 321 320 321 321 320 320 320 320 320 321 321 318 318 319 321 323 323 319 316 315 313 314 314 312 312 313 312 311 311 312 311 312 313 313 312 312 312 311 313 316 316 318 318 316 313 313 317 318 317 318 318 319 322 319 316 316 317 317 319 319 318 318 317 318 321 322 322 321 321 325 326 320 319 317 313 311 310 308 307 306 305 304 303 303 302
321 322 321 321 321 321 321 320 319 319 318 320 321 319 318 319 321 323 325 321 317 317 315 315 315 313 313 315 316 313 312 312 312 312 312 312 313 312 312 314 313 314 317 317 318 318 316 314 314 315 315 314 318 318 315 316 315 315 316 316 318 321 320 318 318 317 319 324 324 323 322 320 324 326 317 314 315 313 311 310 308 306 305 304 303 302 301 301
321 321 321 321 321 321 320 319 319 319 318 319 319 318 319 321 321 322 323 319 321 321 318 318 317 315 316 318 318 316 315 315 312 313 314 314 314 313 314 316 316 318 319 319 320 320 320 319 317 315 314 313 317 318 316 315 314 315 315 315 318 323 321 320 322 322 322 324 323 323 323 322 323 322 315 312 311 311 310 309 307 305 304 303 302 302 300 300
318 320 320 321 320 320 320 319 318 318 319 319 318 317 319 321 322 322 321 321 324 322 319 319 318 317 318 318 320 320 319 318 314 313 316 317 318 318 317 317 318 319 319 318 320 320 321 322 319 318 316 314 316 317 319 319 316 314 316 318 321 321 319 319 321 321 321 321 320 320 320 322 323 319 313 309 308 308 307 306 305 304 303 303 302 301 300 299
315 316 317 318 319 320 319 318 318 317 318 318 318 319 320 320 322 321 321 322 321 319 319 319 318 318 318 318 320 319 319 321 317 316 318 318 318 319 319 318 319 320 319 320 320 319 319 320 320 321 318 315 316 317 319 321 317 314 317 321 322 320 318 316 317 318 319 320 320 319 319 323 323 316 311 308 306 305 305 304 304 303 302 302 301 300 300 299
315 315 316 318 319 319 318 318 317 317 317 318 318 320 320 320 320 320 320 321 320 319 319 318 319 319 319 318 319 318 318 319 319 318 319 318 317 317 317 317 319 320 320 320 320 318 317 318 319 319 315 314 316 316 317 320 319 317 318 320 321 321 319 318 319 319 320 321 321 320 322 323 318 312 308 307 305 305 304 304 303 303 302 301 300 300 299 299
317 316 316 318 319 318 317 317 316 316 317 318 319 320 319 319 319 320 320 319 319 320 319 319 320 320 319 319 318 318 317 317 319 319 318 317 316 317 316 315 317 320 320 319 318 316 316 318 321 319 314 313 315 316 316 317 319 319 319 321 321 319 319 320 321 320 319 320 319 318 320 319 315 311 308 306 306 305 304 303 303 302 302 301 300 299 299 299
317 317 317 317 318 317 316 315 315 315 317 318 319 319 319 318 318 318 318 317 316 318 318 319 320 319 319 319 318 318 318 317 318 318 317 317 316 316 316 316 317 319 319 318 317 318 318 318 319 320 319 314 310 312 315 314 316 319 320 319 317 318 320 319 319 319 319 319 317 315 317 316 315 315 310 307 306 305 305 304 303 302 302 301 300 299 299 299
316 316 316 317 317 316 315 314 314 314 316 317 318 318 318 317 317 317 317 316 315 317 318 318 319 318 318 318 317 317 318 318 318 318 317 316 316 316 316 316 316 315 315 315 316 318 319 318 318 319 322 317 310 312 316 314 314 316 316 315 315 318 320 318 317 319 320 318 317 317 317 315 316 315 311 308 307 306 305 305 304 303 302 301 300 299 299 298
313 312 312 314 315 313 313 312 312 313 315 316 316 316 316 316 316 316 316 316 315 316 317 317 317 317 317 317 316 316 317 318 318 317 317 316 315 316 315 317 316 313 312 314 316 317 317 318 319 318 320 318 313 315 318 316 315 313 313 315 316 317 318 317 317 319 319 319 318 318 317 317 316 314 311 308 307 306 306 305 304 303 302 301 300 299 298 298
309 309 310 312 312 311 310 310 311 312 313 314 314 314 315 315 315 315 316 316 315 316 316 317 317 317 317 317 316 316 316 317 317 316 316 314 314 316 316 317 317 314 312 313 314 316 316 316 318 317 316 317 316 317 317 317 316 314 313 315 315 316 317 317 316 317 318 317 317 317 316 316 315 311 309 308 308 308 307 306 304 302 301 300 299 299 298 297
306 306 308 310 310 309 308 308 311 312 311 311 312 313 313 314 315 315 315 315 315 315 315 316 316 316 316 316 316 315 315 315 315 314 315 313 312 315 314 313 315 314 314 314 315 315 314 315 316 316 316 316 316 317 316 315 316 315 315 314 314 316 317 317 316 316 315 315 316 316 315 316 313 308 308 309 308 308 306 305 304 301 300 299 298 298 298 297
304 305 308 309 309 308 307 308 310 310 310 311 311 312 312 313 314 314 314 315 314 315 314 314 315 315 316 315 315 315 314 315 315 314 315 314 314 315 312 310 312 313 313 316 316 313 312 314 314 315 315 313 313 315 315 315 315 314 314 315 314 314 314 315 315 315 315 315 316 316 315 316 312 307 307 306 305 305 305 304 302 300 300 299 298 299 298 297
303 306 308 308 307 307 307 308 309 309 309 310 310 311 312 313 313 313 314 314 314 314 314 314 314 313 314 315 314 314 314 315 316 315 316 316 315 312 309 309 311 311 312 316 316 313 312 314 314 314 313 312 312 314 315 314 314 314 314 314 314 313 312 312 313 313 314 314 314 314 314 316 312 307 304 302 301 302 302 302 301 300 299 298 298 298 297 295
303 305 306 306 306 307 307 308 309 309 309 309 310 311 311 312 313 313 313 313 313 314 314 314 314 313 314 314 314 314 314 314 315 315 316 317 314 309 307 310 310 310 312 315 315 314 313 314 314 313 314 313 313 315 316 315 314 314 313 312 312 311 311 311 312 312 312 312 313 313 313 315 314 308 304 302 301 301 301 301 300 299 299 298 298 297 296 294
303 303 305 306 306 306 308 308 308 309 309 309 310 310 310 311 312 312 313 313 313 313 313 313 313 313 314 314 314 314 314 314 314 315 316 317 313 308 307 309 309 309 310 311 311 311 312 313 313 313 314 314 314 315 314 313 313 312 312 312 312 311 312 312 312 312 312 312 312 311 311 312 313 310 307 306 304 302 301 300 300 299 299 298 298 297 296 295
302 303 304 305 305 306 307 308 308 309 309 310 310 310 310 310 310 311 312 312 312 312 313 312 312 313 313 314 314 314 314 314 313 314 315 315 313 309 306 307 308 307 307 307 308 310 310 310 311 311 312 312 312 311 311 310 310 309 310 311 311 310 311 311 310 310 310 309 309 309 309 309 308 307 306 306 305 303 301 300 299 299 299 298 297 297 296 295
301 302 304 305 305 306 306 307 308 308 309 309 309 309 309 309 309 310 312 312 312 312 312 311 311 312 312 313 313 312 312 313 312 312 312 313 311 308 306 306 306 305 305 306 307 309 309 309 309 309 309 309 310 309 308 308 308 308 308 308 307 308 308 308 308 308 308 307 306 306 306 306 305 305 304 304 304 304 301 299 299 298 298 297 296 296 296 295
300 301 302 303 304 306 307 307 307 307 307 309 309 309 309 309 309 309 311 312 311 311 311 310 311 311 311 312 312 311 311 311 311 311 311 312 311 308 306 306 304 304 305 305 306 308 308 308 308 308 308 308 308 308 307 307 306 305 306 306 305 306 305 305 305 305 306 306 305 304 305 305 304 303 303 303 302 302 299 298 298 297 296 295 294 294 294 294
299 299 299 301 302 304 306 307 307 306 306 307 308 308 309 309 308 308 309 311 311 310 310 310 310 310 311 311 310 310 310 310 310 311 311 311 310 308 307 307 304 303 304 304 304 305 306 306 306 306 306 306 306 306 305 305 305 304 304 304 304 304 304 304 304 304 305 305 304 304 304 303 302 302 302 300 299 298 297 297 296 295 294 293 293 293 293 293
298 298 299 299 301 302 303 305 307 306 305 306 307 307 307 308 308 308 308 309 309 310 309 310 310 310 310 310 310 309 310 309 310 310 309 308 308 308 308 307 304 303 303 304 304 304 304 305 305 304 304 304 304 303 303 303 303 303 302 302 302 302 302 302 302 302 302 302 302 302 301 301 301 300 299 298 296 296 296 295 295 294 293 293 292 292 292 292
296 297 297 298 299 301 302 303 305 306 305 305 306 306 306 307 307 307 307 306 307 308 309 308 308 308 307 308 308 308 307 306 306 306 305 305 306 305 305 305 304 303 303 303 303 303 303 304 304 303 303 302 302 302 301 301 302 301 300 300 300 300 300 300 301 301 300 300 301 300 301 301 300 298 297 296 294 294 294 294 294 293 293 292 292 292 292 292
296 296 296 296 298 300 301 302 304 305 305 305 305 305 305 306 306 306 306 304 303 304 306 306 306 307 306 306 305 304 303 302 303 302 302 302 302 302 302 302 302 303 303 302 303 302 303 303 303 302 302 301 301 300 299 299 300 299 298 299 298 299 299 299 299 300 300 300 300 300 301 300 298 297 297 295 293 293 293 293 293 293 293 292 292 292 292 292
Wind_Speed
1 1 2 2 1 2 2 2 2 2 3 3 3 4 4 4 5 5 6 7 7 8 9 9 10 11 11 12 13 14 16 16 18 20 21 19 13 10 7 4 4 5 5 4 5 4 4 3 3 3 3 5 4 4 6 5 4 2 1 3 4 5 5 3 4 4 4 4 6 7 9 8 7 8 4 4 8 12 15 21 22 20 21 24 25 23 24 23
3 3 3 3 3 3 4 4 4 4 4 5 5 5 6 6 6 7 8 8 9 9 10 11 11 12 12 13 13 15 16 17 21 21 18 11 2 2 2 2 4 4 5 4 3 1 3 3 5 6 5 6 6 6 6 5 6 5 3 3 4 4 6 8 8 7 5 5 9 12 13 10 8 12 9 5 8 11 12 18 23 22 21 21 20 21 24 24
4 5 5 5 5 5 6 6 6 6 6 7 7 7 7 8 8 8 9 9 10 11 11 12 12 13 14 14 15 16 16 21 21 15 8 1 6 5 3 7 8 6 5 4 2 3 4 5 5 7 7 8 7 6 6 5 6 9 6 3 5 6 7 10 12 10 8 10 10 10 12 12 13 16 12 8 9 9 9 15 19 20 19 18 17 18 18 20
6 6 6 6 7 7 7 7 8 8 8 8 9 9 9 9 10 10 10 11 12 12 13 14 14 15 15 16 16 16 18 20 12 3 1 5 5 2 7 12 13 7 4 4 3 5 7 7 5 7 8 9 10 8 6 8 7 7 7 4 6 7 8 11 16 16 11 9 8 10 12 13 15 16 13 9 8 6 11 18 20 22 22 21 23 22 20 19
7 7 7 7 8 8 9 9 9 9 10 10 10 11 11 11 12 12 12 13 14 14 15 16 17 17 17 17 17 15 15 10 1 2 2 5 2 10 14 15 14 7 4 4 4 6 7 7 6 7 8 7 10 8 7 13 11 5 7 9 11 11 8 12 17 14 9 7 9 11 10 12 15 14 14 11 8 8 14 20 23 27 27 27 27 25 24 23
8 8 8 9 9 9 10 10 10 11 12 12 12 13 13 13 14 14 15 16 16 17 17 18 18 18 18 18 17 15 9 4 4 4 4 7 13 17 17 15 13 7 6 5 5 6 6 6 7 9 9 7 8 8 9 15 14 7 8 11 14 14 11 15 18 12 8 7 10 12 12 15 15 15 18 16 16 20 23 24 27 30 30 29 28 25 24 24
9 9 9 10 10 10 11 11 12 12 13 13 14 14 15 15 16 16 17 17 17 18 18 18 18 18 18 17 16 13 8 12 15 13 14 17 18 18 16 13 10 6 8 8 7 6 6 7 9 10 8 6 8 10 11 14 12 7 6 9 15 18 18 20 19 15 11 11 14 15 15 15 13 14 19 19 21 29 30 28 30 31 29 28 27 25 24 24
10 10 10 11 11 11 11 12 12 13 13 14 14 15 15 16 16 16 17 17 17 17 17 17 17 17 16 15 14 10 10 16 19 16 17 17 15 15 12 9 7 6 9 9 8 7 7 8 10 11 8 7 9 10 10 10 9 8 7 10 14 16 17 18 18 16 15 16 17 15 14 17 17 17 22 24 26 30 28 26 26 26 25 25 24 24 23 23
11 11 11 11 11 12 12 12 13 13 14 14 15 15 15 15 15 15 15 16 16 15 15 15 15 15 14 14 10 7 11 15 15 14 13 11 10 10 9 8 8 7 9 10 9 8 9 9 9 8 6 9 11 10 11 8 4 6 8 10 12 12 15 18 19 20 19 19 17 11 11 18 18 15 19 24 23 22 20 18 19 19 20 21 21 22 22 23
12 12 12 12 12 12 12 13 13 14 14 15 15 15 15 15 15 15 15 15 14 14 14 14 14 14 14 14 6 5 10 10 10 10 9 10 10 10 10 10 9 9 10 11 10 10 11 10 10 10 10 10 9 10 12 9 7 8 11 13 15 15 19 22 22 26 24 21 21 13 9 17 18 8 11 21 19 17 17 17 18 18 19 21 21 23 24 25
12 13 13 13 12 12 13 13 14 14 15 15 15 15 15 14 14 14 14 14 14 14 13 13 14 14 14 13 8 9 11 9 9 11 12 13 14 14 14 13 11 10 10 10 10 11 12 11 11 9 7 5 6 11 11 9 9 9 11 12 15 17 21 23 22 26 21 14 19 16 8 15 15 7 16 27 22 19 21 20 20 20 21 22 23 25 26 27
12 12 13 12 12 13 13 13 14 14 14 14 14 14 14 14 14 14 14 14 14 13 13 14 14 14 14 14 16 17 16 15 14 15 17 17 18 18 17 15 13 11 10 11 10 12 13 13 13 9 7 6 7 8 7 6 7 7 6 6 12 14 15 20 21 24 20 9 11 9 2 9 9 11 24 29 22 20 22 20 20 20 23 26 25 26 27 27
12 12 12 12 12 12 12 12 12 13 14 14 14 14 14 14 14 14 14 13 14 13 13 13 14 15 13 12 19 19 17 17 16 16 17 17 18 18 17 14 12 12 12 13 13 13 14 14 15 12 12 11 8 7 7 10 10 6 6 4 9 9 7 15 17 16 13 7 14 10 2 6 6 13 23 22 16 15 16 17 21 24 28 30 28 27 26 25
12 12 11 11 11 11 11 11 11 12 13 13 13 14 14 14 14 14 14 13 13 12 12 13 13 14 11 14 19 19 17 17 16 17 16 17 18 18 16 13 11 11 11 14 15 14 14 14 14 12 12 12 11 11 10 10 8 6 7 5 5 5 3 11 9 6 4 6 16 10 2 6 5 14 19 16 10 9 12 16 25 30 31 30 28 25 22 19
12 11 11 11 11 11 10 10 11 11 12 13 13 14 14 14 14 14 13 13 12 12 12 12 13 11 10 15 19 16 15 14 14 14 11 13 15 14 13 11 9 10 11 13 15 15 15 13 11 9 9 11 11 10 7 5 4 4 6 4 4 4 4 9 7 7 5 4 12 9 2 6 7 11 14 15 15 16 18 22 29 34 33 30 26 20 18 16
12 11 11 10 10 10 10 10 10 10 11 12 13 14 14 14 13 13 14 13 13 13 11 10 11 8 7 11 14 13 12 10 10 10 8 10 11 10 12 10 6 8 10 12 13 13 13 11 8 7 7 6 5 5 4 3 4 4 5 4 5 5 5 5 3 7 8 3 7 7 4 5 5 7 13 18 23 23 23 25 31 34 33 29 24 19 17 13
11 11 10 10 9 9 10 10 10 10 11 12 13 13 13 14 13 14 14 13 13 12 10 9 8 7 9 12 13 12 10 10 9 7 7 7 7 7 7 6 5 5 5 7 9 9 9 8 6 5 5 5 4 3 3 3 4 4 4 5 6 6 5 4 2 2 4 5 5 8 7 7 7 10 18 22 25 24 22 25 29 30 30 28 23 16 9 10
11 10 10 9 9 9 10 10 10 11 10 11 12 12 13 13 13 14 14 14 12 10 8 8 5 2 7 10 10 9 9 9 7 5 7 6 6 5 4 4 4 2 2 3 6 7 7 7 6 3 3 5 4 4 4 5 5 5 5 4 5 6 6 6 5 6 6 3 6 7 8 9 7 9 15 20 24 24 23 26 25 24 28 30 19 5 12 18
10 10 9 8 8 9 10 11 11 11 11 10 12 12 12 11 11 12 11 10 8 5 5 5 8 4 5 8 9 10 12 12 10 10 12 12 9 7 7 6 5 6 6 4 5 11 9 4 5 3 3 5 6 7 8 9 8 9 9 7 7 7 6 8 8 8 9 9 8 8 9 8 7 8 12 21 27 27 26 24 20 23 29 21 4 14 19 22
10 9 9 8 8 10 11 11 11 11 11 10 11 11 9 8 7 5 4 7 10 10 11 10 12 14 15 16 13 12 15 15 13 13 13 10 7 7 8 7 8 7 5 4 5 10 11 4 4 5 6 9 10 11 11 11 10 10 9 8 8 6 7 8 9 9 8 7 7 7 8 8 9 9 13 24 26 22 20 17 20 24 15 5 17 20 22 24
10 10 9 8 8 10 11 12 11 10 11 10 9 7 5 5 4 4 7 12 14 14 18 20 20 22 22 21 19 19 19 13 12 13 10 6 5 6 9 10 7 4 7 8 4 5 7 4 5 8 10 13 12 11 11 11 10 9 7 6 6 5 7 8 10 11 5 3 4 5 8 7 9 12 17 23 18 14 16 16 20 13 9 19 21 23 24 23
11 10 10 9 8 9 10 10 10 9 8 8 5 4 3 4 3 6 9 11 15 16 19 24 26 28 28 23 22 23 18 10 10 12 10 8 9 8 10 11 5 3 7 8 4 3 4 5 9 13 12 12 11 10 10 11 9 7 5 5 5 5 7 8 9 6 1 1 3 6 7 6 10 15 17 19 14 15 22 18 10 5 20 22 23 26 24 23
12 11 11 10 8 8 8 8 8 8 6 5 3 2 3 4 5 8 8 8 14 17 18 22 26 28 26 19 17 19 16 11 11 14 13 10 12 10 9 9 6 4 5 6 5 4 4 5 11 14 12 9 10 9 9 9 7 4 4 4 5 5 5 5 4 4 4 4 6 8 7 5 11 14 14 17 16 17 17 2 18 23 26 26 26 27 24 25
12 12 12 10 8 7 7 7 8 7 5 3 2 2 4 5 7 10 9 7 9 11 16 22 21 19 16 13 13 13 11 11 10 11 14 13 12 11 9 8 7 5 6 8 9 9 6 7 9 7 7 7 7 7 7 6 4 4 5 5 6 7 7 5 4 6 6 7 6 5 5 5 8 8 7 8 9 10 2 21 31 27 27 28 28 27 27 25
12 12 11 9 7 6 7 7 6 4 3 3 2 2 4 6 7 10 7 5 6 6 12 15 13 11 11 11 12 9 6 8 6 7 14 16 12 8 7 10 8 5 8 10 10 9 7 9 9 5 4 5 5 6 7 5 3 5 6 7 7 6 5 4 6 6 4 5 3 2 3 4 3 5 7 6 4 1 10 21 22 22 24 26 26 26 25 25
12 12 11 9 7 7 6 5 5 2 1 2 3 3 5 6 7 9 5 3 4 3 4 5 5 5 5 5 6 5 2 4 6 8 14 15 13 6 3 7 7 4 5 6 5 4 3 2 1 2 3 3 4 6 7 4 3 4 3 2 2 3 4 4 5 3 2 4 3 0 2 4 3 4 7 9 7 4 13 15 15 21 23 23 25 23 22 24
13 14 13 12 12 10 7 4 4 3 2 3 4 4 5 6 6 7 3 3 4 2 4 2 2 2 3 2 5 5 1 2 5 7 12 12 10 6 3 3 4 3 2 0 1 1 3 4 4 2 3 3 4 5 6 6 4 3 1 4 5 4 4 4 3 3 4 4 5 5 4 5 5 5 10 13 5 9 12 11 13 19 22 23 24 22 21 22
15 15 14 14 13 10 8 6 5 4 3 4 4 4 4 5 6 5 1 3 2 4 4 2 2 2 3 4 7 4 1 2 3 4 10 11 8 5 5 4 2 3 3 4 2 1 1 4 4 4 4 4 5 6 5 7 5 2 1 3 3 2 2 3 3 5 4 4 4 5 6 3 5 5 10 9 5 11 10 10 10 14 20 21 21 21 20 20
14 13 11 10 9 9 8 8 6 5 5 4 4 3 4 5 4 4 0 3 1 3 2 2 3 3 4 5 6 5 2 2 0 1 6 8 8 5 2 4 5 4 3 6 5 3 0 3 4 6 5 4 5 3 1 3 4 2 2 2 1 2 3 4 5 4 3 3 4 5 6 3 5 6 5 3 7 8 8 8 9 14 20 20 19 19 17 19
13 11 9 8 8 8 8 7 6 5 5 4 3 3 4 3 2 2 3 3 2 3 2 3 2 4 5 3 4 6 4 2 2 4 4 3 7 6 3 3 3 3 3 3 5 8 3 4 2 4 5 3 3 1 3 3 2 2 1 2 3 4 4 3 3 1 1 3 6 8 10 6 3 5 1 4 5 10 10 8 9 14 19 19 17 16 16 17
12 10 9 8 7 7 7 7 7 6 5 4 3 3 2 2 2 2 4 1 1 1 2 3 1 3 4 2 1 4 3 3 6 6 3 1 4 5 3 3 1 1 3 3 5 8 4 2 1 5 7 4 4 1 2 4 3 2 2 2 4 4 1 1 0 1 1 4 6 5 10 10 4 3 3 7 5 9 11 9 10 11 16 19 17 15 15 15
11 10 9 7 8 8 8 8 7 6 6 4 2 1 1 1 2 4 3 1 1 2 1 1 0 0 0 1 1 3 1 3 6 5 3 3 4 4 4 3 1 1 2 2 2 3 4 5 5 3 5 6 3 1 1 2 3 4 2 2 1 2 1 1 1 1 2 6 4 3 2 6 6 3 5 9 8 8 10 12 13 14 17 19 16 14 14 14
10 9 9 9 10 10 10 10 9 6 5 4 4 3 3 2 4 3 4 2 1 0 2 2 0 0 1 1 0 1 1 2 6 5 3 3 3 4 6 7 4 2 3 1 2 3 1 2 5 3 2 6 7 3 1 1 2 5 4 4 4 1 2 3 3 2 3 4 3 5 5 0 4 2 6 9 9 12 17 19 19 19 19 18 15 14 13 14
11 11 12 13 13 13 12 11 9 7 6 6 5 4 2 5 3 0 4 5 1 2 2 2 0 1 1 0 1 1 0 2 4 4 2 2 2 3 5 7 7 5 3 1 1 2 3 3 3 3 1 6 8 5 2 1 3 6 4 4 4 3 3 4 3 4 4 3 3 2 1 1 2 1 5 11 13 17 21 22 22 21 19 17 15 13 14 15
16 16 17 17 16 15 13 12 11 9 9 8 5 2 5 6 2 0 2 3 1 2 1 2 2 1 3 2 3 1 3 2 1 2 2 3 3 4 2 3 4 4 2 1 1 2 4 5 1 2 1 6 5 3 0 3 1 4 0 2 2 3 3 3 4 4 3 3 3 2 2 3 2 5 7 11 13 15 18 19 19 18 16 16 14 13 13 13
20 20 20 20 19 17 15 14 13 12 12 10 4 4 7 4 1 1 1 2 2 1 1 2 1 0 4 2 4 5 3 1 2 1 1 3 4 6 4 3 3 5 5 3 1 0 3 3 1 2 1 3 1 2 1 1 0 1 2 1 3 2 1 2 5 4 3 4 5 4 4 3 2 4 5 8 10 10 11 13 15 14 13 13 12 11 10 10
20 20 21 21 21 18 17 16 14 14 13 9 5 6 4 3 5 4 1 1 2 1 1 2 2 3 3 1 3 4 2 1 1 1 1 2 3 4 5 4 3 3 5 3 1 1 1 2 2 3 2 1 1 4 3 2 1 2 1 2 2 2 1 1 3 3 4 5 5 5 6 5 3 2 3 7 8 8 7 8 11 12 12 11 10 9 8 8
20 20 21 23 23 20 17 17 15 13 11 6 7 9 3 3 7 5 1 1 1 1 1 4 3 3 4 4 4 3 3 2 3 3 1 2 2 2 3 2 3 3 1 2 1 1 1 2 4 2 1 1 1 3 3 4 1 3 2 1 1 0 2 1 2 2 4 6 4 5 8 7 5 3 5 7 7 8 7 6 7 8 10 10 8 7 6 5
16 14 16 20 23 21 18 16 13 11 8 5 6 8 4 4 9 11 8 4 2 2 3 5 5 3 4 6 5 3 4 4 4 3 2 3 3 2 0 2 3 4 6 7 2 1 2 1 2 2 2 2 2 1 1 3 2 3 3 1 1 3 3 2 2 2 4 6 4 5 6 4 2 1 5 8 7 7 7 5 5 6 8 9 8 7 5 4
11 7 8 12 14 14 14 16 15 10 6 5 6 6 4 4 8 16 18 11 4 5 5 5 5 5 6 6 7 6 4 5 5 4 3 3 3 1 4 5 2 2 6 6 1 1 1 2 3 1 0 2 1 2 3 1 1 2 2 2 2 1 1 1 2 2 3 4 4 5 6 3 2 3 4 8 7 6 6 5 5 7 9 8 7 6 4 3
8 4 6 10 9 9 13 16 12 8 4 5 6 6 6 6 5 9 16 16 11 9 8 6 6 6 5 6 8 6 5 5 6 5 4 5 5 2 3 4 3 2 3 2 1 1 0 2 2 3 3 1 2 1 3 2 1 2 1 2 2 1 1 2 5 4 3 3 3 4 6 3 1 2 3 6 4 5 7 7 7 9 10 7 5 4 1 1
6 4 6 9 9 11 15 12 7 8 5 7 8 6 8 8 6 7 11 14 12 10 9 7 7 7 6 7 6 5 5 4 5 6 4 4 5 2 1 1 3 2 2 1 0 1 2 1 1 5 5 5 6 2 3 3 3 1 1 1 3 3 1 3 6 3 2 3 1 3 6 2 0 2 2 5 4 6 7 6 7 9 8 5 4 2 2 1
8 6 7 7 11 18 15 5 6 8 6 10 10 9 11 8 5 7 9 10 9 8 7 6 7 9 8 7 7 6 6 4 5 7 4 2 2 2 3 3 3 1 1 1 1 1 3 2 2 4 5 7 8 3 5 6 4 2 1 1 0 2 3 3 4 1 1 3 3 4 6 3 1 2 0 4 5 5 4 5 7 7 7 6 4 3 2 1
8 8 8 7 14 23 15 5 7 8 7 10 9 9 12 9 7 8 7 9 9 6 6 6 7 9 8 7 7 7 7 5 5 6 4 2 1 3 3 2 2 1 1 1 1 1 1 0 1 1 3 5 4 1 4 5 3 1 1 1 1 2 3 2 1 1 2 6 8 6 4 2 1 2 3 4 4 4 6 8 8 7 8 8 5 3 2 1
6 8 8 9 17 24 17 9 5 5 8 10 9 9 10 9 11 13 10 10 11 8 5 5 6 7 6 6 5 6 7 5 3 3 2 1 0 2 4 5 3 2 3 4 5 4 2 1 2 2 4 5 3 2 1 2 2 0 2 3 3 4 4 2 1 3 4 5 6 4 4 4 2 4 6 5 5 5 6 8 8 8 9 9 7 5 4 3
6 6 5 8 16 24 23 17 8 4 4 7 7 9 10 9 10 15 14 12 14 14 9 5 5 3 4 6 6 6 7 6 5 3 2 2 1 1 3 5 6 5 6 6 6 5 1 1 2 4 5 6 6 6 3 0 1 3 4 5 6 6 6 4 3 5 4 4 5 6 7 8 8 9 9 4 2 5 6 8 10 9 8 8 6 5 5 4
5 5 4 6 9 15 18 19 14 7 4 6 5 5 10 10 8 11 14 12 12 14 9 5 6 5 4 6 6 5 7 7 6 6 4 3 2 2 2 4 5 4 4 5 5 4 2 2 5 7 8 8 9 10 9 7 5 5 6 8 9 9 7 7 7 5 3 4 7 9 10 10 9 9 10 10 5 3 7 8 10 9 7 6 5 4 4 5
6 5 6 5 5 7 9 14 16 12 8 9 5 4 8 10 8 8 10 9 9 10 6 5 8 9 8 8 5 4 6 6 6 6 6 4 3 2 2 2 2 2 3 3 4 4 2 3 6 5 6 8 8 8 8 6 5 5 7 9 11 12 12 11 9 6 4 6 9 9 10 12 10 10 12 10 3 4 6 6 5 5 4 4 2 1 1 3
8 8 8 5 3 5 7 12 15 14 12 10 5 6 8 8 8 7 4 4 4 7 6 6 7 7 7 9 7 4 4 4 4 3 2 2 2 3 2 1 1 3 3 2 2 2 1 3 4 3 3 6 7 6 5 5 6 7 9 10 12 15 15 11 8 8 8 9 10 11 13 14 12 10 8 2 4 6 5 4 3 3 4 4 3 3 3 3
8 6 5 5 5 5 3 6 12 10 10 10 8 9 8 7 9 6 1 2 3 4 7 8 6 1 1 3 5 5 4 3 3 2 2 3 2 2 1 0 1 2 1 1 1 2 1 2 1 1 1 5 7 4 2 3 6 8 11 14 16 16 14 12 10 10 9 10 12 13 13 12 8 3 1 5 7 5 4 3 2 3 4 4 3 5 5 5
10 7 5 5 4 5 3 3 7 6 6 9 9 9 7 8 11 7 1 0 1 1 2 4 2 3 4 4 2 2 3 7 6 4 4 4 2 2 1 1 3 3 1 0 0 1 1 1 2 3 1 7 8 3 1 4 6 8 13 19 20 15 12 10 9 8 9 10 11 10 9 8 3 2 4 6 5 4 3 4 4 4 2 2 5 7 7 6
11 9 6 3 3 4 4 3 5 6 6 7 8 9 8 8 8 7 4 1 3 2 3 6 5 4 3 1 1 3 7 10 8 6 5 3 1 1 1 3 3 3 2 1 1 1 1 1 1 1 3 7 7 1 3 1 3 6 11 15 15 12 11 10 9 10 11 10 8 7 6 5 3 4 3 3 4 3 2 3 5 6 6 7 9 10 8 7
Wind_Direction
235 237 234 235 238 244 252 257 259 268 267 266 271 268 272 273 274 280 283 287 290 294 298 302 306 310 312 313 317 318 319 320 318 313 308 312 312 290 279 290 311 322 322 299 282 264 256 268 237 234 239 252 246 222 234 229 215 219 201 219 241 242 251 327 330 322 355 339 333 325 321 321 319 323 295 254 260 263 276 280 281 278 270 270 279 277 270 275
249 248 251 254 257 258 262 264 264 269 267 269 270 268 272 271 274 276 279 284 285 290 293 296 301 303 306 308 310 312 315 317 313 309 309 312 329 89 75 359 337 321 317 305 290 209 205 239 227 227 228 240 240 213 225 225 203 213 229 240 242 247 276 307 307 313 342 321 314 312 314 321 318 319 309 278 273 277 281 281 284 285 280 281 284 275 264 270
258 258 260 261 263 264 265 267 268 270 270 271 272 271 272 273 274 276 278 281 284 288 289 292 295 297 300 301 306 309 314 316 314 316 321 106 125 97 4 333 337 321 300 291 259 183 210 248 234 227 233 241 236 206 208 202 194 216 222 244 246 255 283 294 303 312 312 304 308 308 316 319 305 302 296 280 280 275 266 274 281 283 284 288 296 298 282 274
262 263 265 266 267 269 269 271 272 272 273 273 274 274 275 276 276 278 280 281 284 286 288 291 292 294 297 299 305 309 317 317 311 301 226 150 134 359 313 311 322 320 286 269 235 199 225 246 231 231 243 253 248 225 202 195 197 209 205 227 260 279 299 294 302 308 303 303 310 310 312 305 297 297 289 282 285 264 252 263 273 277 284 291 295 302 297 288
263 265 267 269 270 273 275 277 278 279 280 279 281 281 282 282 282 283 284 285 286 288 290 292 293 295 297 300 304 310 321 324 277 154 178 169 242 305 303 300 307 307 256 252 228 206 223 232 228 239 244 259 262 243 220 215 213 227 239 246 261 274 284 280 290 301 304 301 296 296 293 292 298 296 284 274 264 258 262 269 274 277 283 288 289 291 291 287
263 265 268 271 272 276 278 279 281 282 283 283 284 285 287 286 287 288 287 289 289 290 292 292 294 295 297 300 301 306 311 285 280 296 259 264 287 297 297 294 297 283 234 228 218 214 222 222 223 234 235 245 259 251 248 239 222 223 254 253 263 271 273 281 289 296 305 298 285 281 279 290 297 288 279 266 258 267 271 272 276 278 281 284 286 287 285 282
264 267 269 271 273 276 278 279 280 281 282 283 284 285 286 287 288 289 289 291 290 292 293 293 295 294 297 298 298 301 275 261 281 282 274 284 290 291 291 289 291 260 223 223 214 212 225 225 225 238 247 246 251 253 262 264 246 230 251 264 274 278 277 283 288 287 292 288 277 278 281 282 279 282 283 269 265 273 275 274 274 277 279 280 281 282 281 280
268 269 271 273 274 275 276 278 278 280 281 281 283 283 285 286 287 289 290 291 291 293 293 293 294 294 296 295 298 299 261 267 284 283 280 285 287 288 284 275 274 243 225 225 213 211 231 237 240 250 257 255 262 271 285 292 272 249 258 271 274 276 279 287 291 285 279 277 274 271 271 269 267 277 282 275 273 276 278 279 275 275 278 276 276 277 279 278
273 273 274 273 274 275 275 277 278 279 280 281 283 285 286 288 289 291 292 292 293 294 295 295 294 294 295 293 297 287 265 272 282 280 278 279 280 281 272 264 262 247 233 224 211 215 235 242 252 271 293 287 284 291 297 296 263 259 282 300 299 297 297 294 291 285 276 272 269 257 256 265 271 280 278 274 276 279 280 277 273 274 275 274 273 275 277 278
277 277 276 276 276 277 278 279 280 282 284 285 287 289 291 292 293 294 294 295 295 295 296 295 295 295 293 293 283 261 278 276 270 273 271 272 276 272 268 267 264 257 243 227 214 218 237 247 262 292 311 301 292 289 289 277 266 297 317 316 307 300 292 284 278 274 270 266 259 247 252 265 271 279 273 275 279 279 278 278 277 275 271 270 272 277 280 278
277 278 278 279 280 281 283 284 287 288 290 291 292 293 294 295 295 295 295 296 295 296 297 294 295 293 291 290 255 246 277 270 262 275 274 276 279 274 270 267 267 263 243 229 223 224 235 248 261 279 296 298 296 286 282 276 280 313 331 316 296 288 283 276 270 267 263 258 249 237 247 271 273 255 253 271 284 281 275 276 276 274 271 271 274 280 283 281
275 276 278 280 282 284 286 288 291 292 292 293 293 294 294 294 294 295 294 295 295 295 295 293 292 289 290 282 259 261 276 269 267 274 273 277 279 277 273 266 262 253 233 223 228 232 232 242 251 253 264 287 312 294 286 307 310 319 323 305 285 282 275 268 263 258 255 238 213 196 223 274 263 243 251 266 280 278 270 269 274 275 274 276 280 284 286 288
273 275 276 278 280 282 284 286 287 288 289 290 291 292 293 294 295 295 295 295 295 294 292 291 288 286 282 270 270 277 279 273 272 269 269 273 274 274 272 265 255 246 235 224 222 231 233 237 244 248 262 278 293 284 291 305 302 287 265 253 277 286 273 270 264 245 245 193 160 145 138 252 252 260 267 275 277 278 278 280 286 283 280 281 283 286 288 290
271 272 273 275 276 278 280 281 282 284 286 289 292 294 295 297 298 298 298 297 295 294 292 288 285 283 268 266 281 284 276 274 269 264 267 268 267 270 269 265 252 242 235 230 230 235 239 241 246 253 261 265 268 277 295 296 282 267 262 242 251 277 266 276 272 171 175 160 153 140 228 242 268 273 280 295 297 298 295 291 290 285 283 284 286 291 295 297
269 269 270 272 273 276 277 278 281 284 287 291 294 296 297 299 300 300 299 298 296 294 293 288 284 277 265 274 284 281 274 269 263 266 269 260 261 266 266 264 257 246 236 236 240 241 246 248 248 253 260 258 255 270 291 280 262 253 265 261 222 242 252 278 280 161 176 187 157 142 239 241 246 267 288 308 309 307 298 291 287 284 285 287 292 301 309 317
266 266 268 271 274 278 280 282 284 287 291 293 295 297 298 298 299 299 298 297 296 294 293 286 279 269 261 276 278 276 273 264 266 276 266 253 253 255 263 272 273 256 242 241 245 242 244 246 243 244 253 257 235 239 269 271 267 236 233 259 245 244 249 274 284 181 174 141 174 188 228 251 245 275 290 289 287 287 285 282 278 280 284 288 296 304 313 335
263 265 267 271 276 280 283 285 288 289 291 294 296 297 297 298 299 297 295 294 291 290 286 273 273 274 262 266 271 271 270 269 275 270 251 251 247 249 267 277 271 265 252 246 245 232 228 222 213 228 234 242 248 245 266 256 249 240 231 249 246 252 273 282 319 216 160 135 208 221 222 247 252 263 268 268 273 273 268 268 270 278 285 290 296 305 332 43
263 265 268 273 277 281 282 285 287 287 288 293 298 299 300 302 301 295 288 285 282 281 280 251 223 263 261 260 271 271 266 265 264 255 253 256 254 259 263 246 245 246 178 209 225 194 192 205 195 216 224 217 243 234 233 237 236 262 266 274 278 278 296 293 290 315 316 264 252 252 244 253 259 270 275 277 281 276 267 268 275 285 288 291 300 356 72 75
260 263 269 275 279 281 282 285 287 289 291 295 303 306 306 309 303 294 285 274 260 253 273 220 195 225 278 282 283 270 268 270 267 267 267 265 264 256 239 221 200 184 169 169 196 182 176 190 186 199 230 216 225 217 222 237 240 260 267 272 284 280 286 286 279 291 294 281 274 274 274 285 296 295 292 283 278 273 271 277 286 287 286 292 359 86 82 75
257 260 267 273 277 283 284 287 291 297 301 304 315 318 318 327 315 302 308 276 255 252 269 258 240 254 272 285 288 274 272 277 275 271 272 269 253 227 210 188 179 191 201 182 173 178 175 183 201 196 219 227 233 234 240 250 250 260 269 268 273 278 281 284 285 284 284 281 276 280 291 303 305 296 280 274 272 273 278 282 278 278 288 54 91 89 80 77
257 259 265 270 277 286 286 290 294 299 308 313 331 344 341 348 321 302 323 297 277 268 267 267 265 262 266 273 277 273 272 276 272 267 270 250 189 184 182 172 172 197 221 206 153 146 173 196 225 210 221 233 243 253 262 274 275 276 285 286 287 285 280 281 283 285 295 291 281 296 297 296 294 283 275 275 277 279 276 267 265 272 78 88 89 85 82 80
254 254 260 266 276 287 287 293 295 294 308 317 343 7 328 334 308 293 311 295 284 278 264 265 268 265 265 265 263 262 261 261 256 247 249 221 180 180 178 175 190 203 210 200 129 104 201 227 236 227 230 239 249 261 268 273 276 280 287 296 292 278 281 281 274 281 19 67 291 299 290 285 280 272 272 276 276 272 270 267 266 88 84 80 80 80 78 75
252 252 256 260 267 280 284 293 293 291 307 319 334 344 322 333 319 307 306 277 282 284 269 263 261 259 260 256 251 254 251 248 246 235 233 211 181 190 189 182 214 224 207 189 171 201 209 216 231 229 231 241 250 257 262 267 264 254 255 274 273 265 273 272 278 326 353 312 285 286 283 277 273 269 272 272 262 262 269 34 81 87 83 78 79 77 71 69
252 251 251 253 257 269 285 296 294 296 317 336 330 324 336 330 322 328 316 267 272 276 261 254 249 248 247 237 239 251 249 244 248 233 217 199 180 191 206 204 216 227 221 207 209 226 230 247 255 233 224 240 253 259 259 263 267 251 234 238 253 258 258 263 314 338 328 302 284 294 295 260 256 267 287 281 252 254 261 86 85 85 84 82 81 76 72 69
251 255 254 250 257 277 295 300 292 305 343 337 322 320 332 327 329 341 330 272 262 243 243 244 237 240 240 237 238 243 250 240 238 199 184 188 190 187 206 212 213 228 230 224 227 237 243 257 261 233 219 242 247 257 253 242 265 269 243 235 250 269 282 299 336 345 333 299 285 28 336 255 258 298 306 294 249 265 75 85 84 81 80 77 76 75 74 73
258 268 265 253 263 283 292 291 281 306 350 301 317 332 326 329 339 345 343 278 271 208 198 220 218 226 226 231 217 203 241 227 210 188 177 188 197 189 205 203 203 238 240 236 245 257 237 196 161 176 203 220 227 256 256 232 247 264 252 268 294 332 336 333 343 342 291 267 255 320 299 257 272 285 274 264 242 102 77 80 79 77 75 72 73 74 75 77
263 274 273 268 270 272 271 264 262 286 284 265 303 327 323 329 343 354 11 272 271 146 123 153 178 194 196 189 174 175 236 172 178 196 194 200 201 204 244 179 175 233 220 49 343 275 204 148 80 75 191 192 204 248 242 197 203 246 285 17 17 11 347 332 328 271 247 274 270 239 225 255 269 246 246 251 220 100 86 82 82 82 80 77 76 74 73 73
266 274 275 270 263 256 253 253 260 284 278 268 294 311 325 330 339 10 40 267 287 107 113 131 149 193 189 168 174 188 281 156 161 206 202 204 191 191 240 231 265 271 164 157 198 306 163 156 144 153 171 201 211 232 221 180 182 222 94 54 35 18 323 286 266 253 263 299 284 214 185 237 274 245 242 236 129 96 97 96 90 86 83 81 81 79 75 72
264 269 270 259 246 244 244 246 257 283 290 288 289 296 321 325 350 36 167 252 352 75 120 140 128 159 156 154 187 210 228 182 221 197 185 194 187 182 250 263 303 318 198 187 206 260 4 145 179 174 173 210 214 232 238 161 178 188 113 62 356 241 240 247 244 255 291 288 261 209 177 197 280 271 249 165 116 115 115 104 93 86 82 80 80 81 78 77
263 260 255 241 235 238 239 249 263 284 297 294 273 291 323 331 32 69 220 235 8 44 117 134 111 147 170 187 197 198 201 170 115 131 140 169 194 211 285 303 323 329 268 238 243 255 240 104 140 213 218 209 144 101 33 72 126 142 82 5 306 257 228 219 224 234 323 269 252 221 192 179 297 301 356 62 118 140 130 118 109 95 90 86 80 78 76 76
262 251 236 231 234 233 239 255 269 281 285 280 275 292 326 8 75 190 224 236 9 23 126 131 118 163 195 247 182 188 200 158 142 150 154 137 185 216 279 310 15 11 303 298 267 254 223 135 198 228 233 210 110 88 15 52 73 86 70 20 337 299 214 132 167 97 142 256 274 244 188 178 213 280 60 46 57 123 132 131 125 108 97 95 89 83 80 78
258 244 230 231 238 238 243 254 268 275 267 255 245 234 54 30 211 213 221 50 57 221 156 117 81 135 280 351 116 165 185 160 163 183 202 173 177 197 205 209 157 43 268 240 278 268 198 195 199 193 222 201 146 72 352 31 76 112 126 118 1 307 274 156 203 158 208 235 277 1 109 177 223 278 63 65 49 71 100 108 112 109 102 98 95 93 89 86
248 243 240 241 242 243 246 254 262 257 237 204 179 123 86 220 227 201 191 205 240 128 91 81 247 275 35 9 61 101 40 173 174 198 226 181 194 213 200 206 207 224 248 248 337 311 256 202 168 147 253 197 171 153 184 248 159 158 166 159 164 226 271 258 236 237 246 241 278 7 24 282 240 296 61 82 73 70 83 95 102 105 104 103 102 99 95 90
241 244 245 244 244 245 246 249 245 233 215 189 160 114 160 221 242 98 199 218 235 77 71 41 354 235 216 275 300 87 104 239 172 169 213 172 208 244 216 217 215 205 215 264 299 220 248 290 177 159 214 177 179 195 194 91 161 190 195 164 176 196 221 245 252 246 252 272 295 342 31 261 216 155 93 95 93 87 90 96 100 102 105 108 108 104 96 89
234 237 240 241 241 241 242 240 229 216 202 181 158 161 212 221 243 336 239 257 268 100 58 332 52 5 293 294 309 286 171 211 60 103 218 224 250 264 245 246 221 179 148 212 241 176 220 258 210 106 126 157 179 242 315 55 143 219 163 100 218 214 200 249 263 247 253 294 285 229 226 265 84 92 98 98 94 93 96 99 100 102 108 110 107 103 98 91
233 233 235 237 237 236 235 229 218 206 192 175 174 221 219 228 236 194 329 325 293 99 83 283 108 314 287 278 274 266 178 153 1 44 252 261 270 259 246 271 241 181 165 183 248 244 227 248 80 53 6 152 149 335 50 114 174 33 63 155 238 229 153 263 275 269 263 270 261 240 256 265 107 93 99 102 96 96 99 99 103 108 112 111 107 107 103 95
239 238 239 238 237 236 231 222 211 201 190 178 206 234 216 222 234 241 313 1 310 30 98 261 191 177 247 251 243 243 147 94 279 135 241 254 255 260 240 251 277 203 193 197 259 261 269 278 220 187 237 257 24 14 345 275 161 105 176 228 282 336 26 237 261 268 252 257 256 245 260 259 226 222 143 116 104 106 113 112 117 120 118 114 112 111 103 90
242 246 247 246 242 236 226 217 205 194 191 192 233 244 241 218 229 246 279 169 272 310 191 231 204 173 229 249 261 244 148 162 195 159 190 227 216 250 224 239 2 12 25 83 87 292 22 289 250 194 179 216 73 37 342 287 246 130 184 223 91 309 291 246 229 231 239 253 253 242 255 254 241 222 147 133 122 122 129 126 124 127 125 124 122 118 111 101
249 252 254 250 244 237 226 212 194 184 197 219 231 236 239 235 240 244 247 244 230 213 223 236 225 225 247 249 270 263 176 181 198 181 184 201 214 231 202 43 41 29 37 66 100 319 28 249 271 16 67 127 80 83 184 264 305 54 33 337 170 191 216 221 233 224 232 250 254 249 254 252 274 332 122 131 134 135 135 129 127 129 129 133 138 139 141 136
255 252 261 250 240 239 222 200 187 182 204 232 228 231 233 237 240 235 233 233 214 207 231 240 222 228 248 256 269 265 222 208 221 222 210 221 258 341 40 32 44 54 42 57 107 23 37 230 247 318 42 103 79 196 167 210 315 52 22 278 227 209 219 235 262 232 214 245 255 254 254 243 313 352 103 126 132 132 135 138 142 143 141 147 158 160 163 155
243 228 256 242 236 229 188 173 183 193 206 242 238 234 235 236 239 228 225 225 224 227 236 243 243 242 247 254 257 255 251 252 249 248 236 228 242 265 39 23 19 46 48 57 117 70 353 251 260 280 265 187 198 177 97 60 63 89 79 257 269 303 321 279 262 234 210 242 246 251 262 254 269 334 82 114 122 120 131 143 152 154 155 163 172 170 177 183
217 219 245 234 232 210 175 159 194 205 205 236 237 231 230 230 233 229 219 217 221 228 230 237 244 244 246 247 248 252 255 255 246 247 244 228 228 221 101 58 53 59 95 116 125 81 89 98 252 269 265 255 257 276 38 348 292 237 194 261 291 292 269 262 264 262 260 268 280 251 256 252 151 312 52 100 109 112 129 152 161 161 165 179 200 222 249 235
202 213 230 226 207 190 176 173 213 200 218 242 243 240 233 228 228 228 215 207 211 217 217 224 229 229 236 239 238 245 245 237 234 236 244 259 226 115 124 149 125 99 109 141 205 91 89 101 242 262 278 279 276 303 29 7 332 284 289 42 321 257 258 254 250 262 278 264 275 260 249 248 268 277 336 112 118 122 152 185 177 169 176 196 216 241 248 233
216 221 225 222 192 182 184 222 214 204 228 236 241 243 236 235 230 224 211 199 202 207 211 221 223 223 228 229 231 234 228 231 243 234 226 253 223 107 95 103 127 135 1 150 187 149 126 177 171 249 285 285 281 331 25 13 24 47 327 8 166 242 279 286 226 185 209 230 235 240 248 245 189 197 199 169 158 181 207 202 188 182 190 205 221 234 235 235
229 226 215 204 188 187 204 233 225 229 228 220 232 237 234 241 231 226 226 213 210 211 215 221 215 217 224 222 231 237 226 228 251 226 185 208 331 62 39 28 53 87 79 98 112 115 163 219 138 166 239 246 249 237 131 82 67 92 267 271 254 240 249 278 291 243 244 239 232 246 273 266 251 250 237 205 182 196 202 191 190 196 198 205 218 216 208 215
220 220 189 181 190 201 220 233 238 270 237 216 230 230 227 240 238 227 222 223 225 221 224 231 202 193 221 215 223 242 234 227 226 219 172 150 115 32 45 48 57 84 99 102 99 96 114 249 202 210 233 245 263 274 278 315 256 258 274 274 265 253 242 246 251 245 268 299 278 268 272 274 281 282 280 277 197 182 182 183 191 194 190 194 206 208 210 226
216 226 193 175 197 213 226 232 230 236 250 239 239 229 226 231 237 223 209 210 223 219 224 247 220 207 219 211 216 236 234 231 228 233 229 187 136 71 99 82 70 94 114 117 119 114 116 233 222 222 236 246 256 269 282 291 275 262 276 275 271 270 257 240 241 250 311 311 273 268 276 279 280 281 293 310 308 181 165 173 180 181 180 186 196 208 228 254
210 253 239 202 199 215 217 220 219 224 247 254 259 274 251 236 231 225 204 196 212 212 212 236 225 220 223 219 218 225 228 233 231 230 228 204 157 115 115 69 73 132 132 137 157 136 127 234 234 225 239 251 259 270 282 293 298 290 279 274 274 270 259 249 247 244 238 249 258 269 276 276 277 281 289 302 306 146 148 156 164 165 156 151 161 205 298 309
225 271 274 253 244 236 221 209 205 214 235 244 250 262 259 251 244 238 192 166 209 216 214 228 226 219 228 230 223 217 228 228 220 225 214 152 136 143 156 29 83 172 155 147 203 182 137 242 248 232 256 270 271 284 308 319 308 291 276 271 268 265 264 267 266 255 246 255 267 275 275 274 278 287 295 315 118 131 142 147 150 141 111 85 60 15 348 331
230 266 293 297 277 256 251 210 193 201 227 230 236 245 244 252 252 247 164 146 198 207 215 229 234 211 336 275 224 214 215 165 151 175 120 110 121 131 153 53 118 163 164 105 277 267 226 247 262 79 340 284 268 267 297 292 276 278 278 271 262 262 267 271 270 266 265 267 267 266 269 273 277 296 88 115 117 116 115 108 97 100 88 60 14 338 316 304
239 264 300 323 280 230 222 216 195 198 220 218 226 237 231 235 242 247 303 115 174 151 183 190 167 93 47 6 308 232 139 114 117 119 103 107 120 92 73 112 117 117 132 118 345 311 283 296 355 31 311 269 273 277 224 257 272 274 269 263 258 258 260 258 257 256 254 257 262 263 262 258 246 104 115 117 98 72 65 57 30 17 23 347 313 308 304 302
236 254 261 282 295 246 210 187 195 209 219 217 224 232 231 237 242 241 241 150 109 111 126 126 119 109 103 98 83 103 110 112 116 118 106 102 127 148 217 216 201 186 180 158 135 210 163 125 311 301 256 263 278 356 108 57 324 278 258 253 253 254 251 250 253 250 246 246 250 254 247 223 161 127 142 126 92 64 16 14 355 332 315 296 287 285 291 301